Tracking 20382 objects as of 24-Feb-2020
HD Live streaming from Space Station
objects crossing your sky now
Track the group of recently launched Starlink satellites

TELECOM 1A

Track TELECOM 1A now!
TELECOM 1A is classified as:


NORAD ID: 15159
Int'l Code: 1984-081B
Perigee: 36,148.6 km
Apogee: 36,506.1 km
Inclination: 15.1 °
Period: 1,463.4 minutes
Semi major axis: 42698 km
RCS: 10.2909 m2 (large)
Launch date: August 4, 1984
Source: France (FR)
Launch site: FRENCH GUIANA (FRGUI)
aabbcc
Your satellite tracking list
Your tracking list is empty




NASA's NSSDC Master Catalog

Two Line Element Set (TLE):
1 15159U 84081B   20054.69910679 -.00000184 +00000-0 +00000-0 0  9994
2 15159 015.1333 351.8084 0041857 353.0285 186.5197 00.98398038095930
Source of the keplerian elements: AFSPC